Location: Newark
(25.6108°S, 54.5803°W)
Time: 21:31:02
(UTC+00:00)

Courier 1B - Pass Details

Date: 01 November 2020
Orbit: 962 x 1209 km, 28.3° (Epoch: 24 November)

Event Time Altitude Azimuth Distance (km) Brightness Sun altitude
Rises 01:16:17 0° 282° (WNW) 3,896 11.0 -39.5°
Reaches altitude 10° 01:18:58 10° 281° (W) 2,976 10.3 -39.9°
Enters shadow 01:21:34 24° 279° (W) 2,126 9.4 -40.3°
Maximum altitude 01:26:24 85° 192° (SSW) 1,170 - -41.0°
Drops below altitude 10° 01:34:15 10° 103° (ESE) 3,133 - -42.1°
Sets 01:37:09 0° 102° (ESE) 4,111 - -42.4°
